Dewpoint
23 22 22 22 27 18 17 17 20 24 16 17 28 43 45 46 41 42 48 49 48 49 51 51 52 53 53 53 53 53 53 53 52 52 52 51 51 51 50 51 52 53 54 56 57 58 59 60 60 60 60 60 62 65 66 69 70 71 72 71 70 71 72 72 72 72 72 72 73 73 73 72 71 72 72 72 72 73 73 72 73 72 67 66 67 69 69
23 25 22 20 17 17 17 26 26 26 22 18 30 34 45 42 44 48 49 49 49 50 50 51 52 53 53 53 54 54 53 52 52 51 50 50 49 49 48 48 50 52 53 54 56 57 59 59 59 60 60 61 62 64 67 69 69 70 71 70 70 70 71 71 71 71 71 73 73 72 72 71 71 71 72 73 74 74 74 74 73 72 72 67 66 67 69
26 24 23 19 18 17 21 27 28 28 26 24 46 48 48 49 48 49 48 48 48 52 55 51 52 52 51 52 53 53 53 52 51 49 49 48 47 47 47 48 48 49 50 51 53 55 57 58 60 61 62 62 64 65 66 66 66 67 68 69 69 70 70 71 71 72 72 71 71 71 72 72 72 73 73 74 74 74 73 72 72 72 72 71 70 67 66
25 24 23 22 20 22 26 27 28 29 28 23 25 46 48 47 47 48 48 47 48 51 54 55 51 49 50 50 50 50 50 48 48 47 48 48 47 47 46 47 47 46 46 47 48 50 52 54 57 59 59 60 61 62 62 62 63 64 66 65 66 66 67 69 70 71 71 71 70 71 71 70 71 71 72 73 72 72 72 72 72 73 72 72 71 71 70
31 25 25 24 25 24 23 27 28 30 35 36 31 44 50 48 48 47 46 46 49 52 52 51 49 48 48 46 46 46 46 46 45 45 45 45 46 46 47 48 48 47 46 46 47 46 50 54 55 57 57 57 59 62 62 60 61 61 61 61 63 63 65 67 68 69 70 71 70 70 71 70 70 71 71 72 72 73 73 74 74 72 72 72 72 72 71
27 29 27 32 27 19 25 32 32 37 39 40 44 46 47 47 47 47 48 48 51 51 49 46 46 46 45 45 46 46 46 46 46 46 45 45 45 46 47 48 49 49 48 48 48 48 48 48 51 56 56 53 55 61 63 61 59 60 59 58 59 60 62 65 65 66 68 70 70 69 70 71 71 71 71 70 71 72 73 73 73 73 73 72 72 71 71
24 27 31 27 20 24 36 34 36 36 40 45 47 48 48 48 47 48 47 48 48 47 45 45 45 45 45 45 45 45 46 46 46 46 45 44 44 45 45 46 48 51 52 51 51 50 50 52 50 51 53 54 56 58 60 61 60 60 59 58 58 58 59 61 63 64 65 66 68 69 70 70 70 70 70 71 71 72 73 73 73 73 73 72 72 72 72
29 26 25 18 22 34 40 38 40 44 35 38 46 46 46 47 47 47 47 47 46 46 45 45 45 44 44 44 45 45 45 46 46 46 45 45 45 44 44 45 47 48 49 50 50 53 57 54 53 52 51 49 49 55 60 62 61 61 62 61 61 61 61 61 62 63 64 65 66 67 69 70 69 69 70 70 70 71 71 72 72 73 73 73 72 72 72
22 25 25 23 34 32 35 38 37 37 35 36 42 43 44 49 48 48 48 48 47 47 48 49 49 47 44 43 43 43 43 44 45 45 45 45 44 43 43 42 43 46 49 49 50 47 46 50 54 54 54 53 51 50 51 53 55 55 55 57 58 60 59 60 64 65 66 65 65 65 66 66 67 67 68 68 68 70 70 69 68 70 71 72 72 73 73
29 24 24 25 26 21 30 39 42 37 43 40 43 43 43 47 52 53 48 47 48 49 50 50 52 49 45 43 43 42 41 42 44 45 44 44 44 44 44 43 43 43 43 43 45 44 46 48 51 54 53 53 52 52 52 52 52 54 53 53 53 55 54 55 56 56 61 63 64 64 63 64 65 67 67 67 67 68 70 69 68 68 69 71 71 72 72
27 28 22 20 18 25 35 39 41 34 30 44 46 40 39 46 51 52 53 50 49 49 49 50 49 48 47 47 44 43 40 40 41 41 40 39 40 41 41 42 42 44 46 45 45 46 46 48 51 52 53 54 53 53 53 52 53 53 54 56 56 56 54 54 55 56 55 58 60 62 62 63 65 66 66 65 67 68 70 69 69 69 69 70 70 70 70
31 26 21 18 31 30 36 43 38 31 32 43 32 25 31 40 48 50 49 50 49 50 51 51 50 48 44 44 42 42 41 39 38 37 37 38 40 42 43 43 44 45 46 44 44 44 45 47 51 52 52 54 57 55 53 52 52 53 54 56 57 56 56 55 55 56 56 59 59 59 58 58 60 63 67 66 65 66 67 68 68 69 70 67 67 68 67
27 28 22 24 33 41 44 38 38 30 43 33 24 23 30 41 46 49 52 53 53 52 50 49 48 49 47 43 41 39 38 37 38 38 39 40 42 43 45 48 51 44 44 44 44 46 47 48 48 52 54 54 54 56 54 53 53 53 54 55 56 56 56 56 56 57 57 58 59 57 56 57 59 60 61 64 65 66 66 66 67 67 67 67 67 67 66
17 24 16 17 28 38 40 38 41 37 31 19 21 32 43 46 44 46 48 49 51 50 49 47 44 45 42 41 38 38 37 37 38 39 43 45 47 49 52 52 49 45 46 46 47 48 49 50 51 52 54 55 55 53 52 53 54 54 55 55 55 55 56 57 58 58 58 58 59 57 57 58 56 56 58 59 62 65 66 66 66 67 67 68 68 68 68
26 23 19 19 17 34 42 38 35 39 27 25 37 42 42 45 42 47 48 49 49 46 42 41 41 39 38 38 38 39 39 39 40 42 43 43 44 44 45 47 50 47 47 47 48 48 49 50 50 51 54 55 54 52 51 53 54 54 56 55 55 55 56 56 57 57 57 58 58 57 58 58 56 56 56 56 57 60 62 64 66 66 67 67 67 68 68
22 25 22 21 28 38 45 38 30 35 41 42 47 42 38 40 41 44 46 47 45 41 39 38 38 38 39 40 40 41 42 42 43 43 44 45 45 45 45 47 48 52 48 48 48 48 49 51 51 51 52 55 55 53 51 53 54 54 54 55 55 56 57 56 56 57 57 58 57 56 57 58 58 56 56 57 58 58 59 60 61 61 63 65 66 68 68
30 29 31 35 38 41 44 46 43 44 45 45 44 42 40 38 38 41 41 41 41 37 37 37 37 38 39 40 41 41 42 43 43 44 44 45 45 45 46 47 49 48 47 47 48 48 47 49 51 52 51 53 53 51 50 55 55 53 55 56 56 56 56 55 56 55 56 56 56 56 56 56 56 57 57 57 57 58 59 59 59 60 61 63 63 64 66
37 38 39 42 41 42 42 45 46 41 42 45 43 40 39 41 40 40 40 41 40 40 38 37 38 38 39 41 41 42 43 44 45 47 45 45 46 46 46 46 47 47 47 48 48 49 48 49 49 52 52 52 51 50 52 54 53 53 54 56 55 55 53 53 53 54 54 54 55 56 55 56 57 57 57 58 58 58 58 58 58 58 60 60 61 58 56
29 24 38 39 39 42 43 41 42 42 42 44 45 42 42 43 39 39 41 42 42 40 40 39 38 39 41 42 43 44 45 45 44 44 44 44 44 45 46 49 49 47 48 48 48 50 49 49 49 51 50 52 52 53 54 53 53 53 54 56 55 53 51 52 52 52 53 55 53 52 52 52 53 55 55 55 54 56 55 53 52 53 54 56 56 54 57
31 31 38 42 44 43 45 43 41 39 38 41 45 44 45 45 44 41 41 42 44 42 43 44 43 42 42 43 44 44 44 45 45 45 44 44 44 45 47 49 48 47 47 47 48 50 49 47 49 51 51 50 51 50 51 52 51 52 54 55 53 51 50 50 51 52 53 55 53 51 51 52 52 52 53 54 54 54 54 53 53 54 54 55 54 54 54
39 39 41 44 41 40 44 45 45 46 45 40 42 43 42 42 41 42 43 41 40 41 42 42 43 42 41 42 43 44 45 45 45 45 45 44 44 45 46 48 48 46 47 48 48 50 49 48 49 49 48 49 49 48 49 50 50 51 52 53 54 51 50 50 50 54 54 52 51 52 51 52 52 53 53 54 53 53 54 56 57 55 53 53 55 53 52
34 34 36 42 33 33 40 44 45 46 46 46 40 42 42 41 40 40 40 42 42 41 42 42 41 40 41 42 45 45 44 44 43 44 44 44 44 45 46 48 47 48 49 48 49 49 47 48 48 48 48 48 48 48 48 48 49 50 53 53 52 51 51 51 51 52 53 51 51 53 51 51 51 51 55 52 51 53 52 56 54 50 48 51 52 51 51
34 41 43 44 42 41 43 46 46 47 48 46 45 43 41 42 41 40 39 40 41 41 42 44 43 42 44 44 44 43 43 42 43 44 43 43 45 45 46 45 45 47 48 51 50 49 47 49 49 48 47 47 47 48 48 49 50 50 50 52 52 50 52 50 52 52 52 51 51 52 51 51 51 52 51 51 47 48 49 52 49 46 45 45 46 48 55
42 44 45 46 42 41 43 46 47 48 48 48 47 47 48 47 46 43 40 38 40 42 42 44 44 44 43 43 42 41 41 42 44 43 43 43 42 44 45 44 46 46 47 47 47 48 47 47 47 47 47 47 47 48 49 49 50 49 50 51 50 50 50 51 52 53 52 53 53 53 52 52 51 52 51 51 51 48 47 47 47 46 45 44 45 45 46
41 45 46 47 46 46 47 48 48 49 51 50 46 46 49 48 49 48 46 43 42 42 42 43 43 43 42 42 42 41 42 44 44 44 46 46 44 43 45 45 45 46 46 45 46 46 46 46 47 50 47 47 49 49 49 49 49 50 50 51 49 49 49 51 52 53 52 52 52 52 51 51 51 51 50 51 49 49 50 48 47 45 45 45 45 45 44
46 46 47 47 46 46 47 45 44 47 47 50 50 51 52 53 51 51 47 46 45 42 42 42 42 43 43 43 43 42 42 44 49 47 43 43 43 45 44 44 45 46 45 45 46 46 45 47 46 47 49 48 47 48 49 50 49 49 48 49 48 49 50 50 50 50 50 49 49 50 50 50 50 50 50 50 49 49 49 49 50 48 46 45 44 44 44
47 47 45 43 43 44 45 43 43 47 49 50 50 50 50 49 52 50 48 48 47 45 42 42 42 42 44 44 45 43 42 47 46 41 41 42 44 43 44 45 46 47 47 46 47 47 48 48 49 48 47 48 49 49 49 49 48 48 48 48 48 51 49 49 48 49 49 49 50 50 50 51 50 51 51 51 52 51 50 50 50 50 50 51 50 48 51
46 46 45 41 42 43 44 47 47 48 48 47 49 48 49 49 50 49 46 46 46 46 46 43 42 43 43 44 44 44 46 44 41 42 44 42 42 43 43 44 45 46 47 48 47 49 50 48 47 47 46 47 48 48 48 47 47 47 48 48 48 47 47 49 48 48 49 50 50 50 50 50 51 52 52 52 52 52 50 51 51 50 50 50 51 51 48
45 45 46 45 46 47 47 47 47 47 47 48 49 48 50 48 48 48 47 48 50 48 46 45 45 44 43 43 43 43 42 42 43 42 42 43 44 43 43 43 44 47 47 48 47 47 46 46 45 45 45 46 47 47 47 46 46 46 47 48 47 47 47 47 48 49 49 50 49 50 51 51 51 51 51 52 52 52 52 51 51 51 50 50 50 50 50
45 46 46 46 46 47 45 45 45 46 47 48 47 48 48 47 47 46 46 47 47 46 47 48 46 44 43 42 42 43 43 42 42 42 43 44 42 43 43 44 46 46 45 45 45 45 44 44 44 43 44 45 46 46 46 46 46 46 47 47 47 47 48 49 49 49 49 49 50 51 51 51 51 50 51 50 51 52 52 52 52 52 51 50 51 50 49
45 46 46 46 46 47 45 45 45 46 47 47 47 47 47 47 47 46 46 46 46 45 45 46 48 49 44 42 42 43 43 42 42 43 43 43 44 45 46 46 45 46 45 44 44 44 44 43 43 43 44 45 46 46 46 46 46 46 47 47 48 50 50 50 50 48 48 50 51 50 50 51 50 50 51 51 52 52 52 52 51 51 51 50 50 50 50
45 45 44 44 45 45 45 46 46 46 46 46 46 47 47 46 46 46 47 48 47 45 47 47 47 47 45 45 45 44 42 42 42 42 44 45 45 45 45 45 46 47 44 44 45 47 44 43 42 43 44 45 46 46 46 46 46 46 46 50 49 47 48 48 48 48 48 48 49 49 49 49 49 50 51 51 50 50 50 50 50 51 51 51 51 51 51
43 42 42 43 44 44 44 44 45 45 45 45 46 47 47 48 48 48 48 49 49 50 49 48 49 48 47 45 43 42 42 42 43 44 44 44 44 44 44 44 44 43 44 44 44 44 44 42 42 44 44 45 46 46 46 46 46 46 46 46 46 46 47 47 47 46 47 48 49 48 49 49 50 50 50 51 51 51 50 50 50 50 50 51 50 51 51
44 43 43 44 43 43 43 44 45 45 46 46 47 47 47 47 48 48 49 50 49 49 49 48 49 49 49 48 44 42 43 44 43 44 43 43 44 44 45 45 44 43 43 43 43 43 43 43 44 44 45 45 46 47 47 46 45 45 45 45 45 45 46 47 47 47 47 48 47 47 47 49 47 48 50 50 50 51 51 51 51 51 50 50 50 51 49
47 47 46 47 47 47 47 47 46 46 46 46 47 47 48 48 48 48 50 49 48 49 49 49 49 49 48 48 45 46 46 45 45 44 43 43 42 43 43 43 43 43 42 42 43 43 43 43 44 44 46 45 45 45 45 45 44 44 44 44 48 47 46 46 45 44 44 44 45 45 46 46 47 48 48 49 49 50 50 51 51 52 52 51 51 51 51
47 46 46 46 46 47 47 48 48 48 47 47 47 48 48 48 48 49 50 49 48 50 50 49 48 48 47 46 46 45 45 45 44 43 42 42 42 43 42 42 42 42 42 42 42 42 43 43 45 44 49 46 45 44 45 45 44 44 45 44 45 45 45 45 44 45 46 45 45 45 45 44 44 44 46 47 48 49 49 49 49 50 50 50 50 50 50
45 44 43 43 44 45 45 45 46 45 46 46 47 48 49 49 49 49 50 48 49 49 49 49 47 46 46 46 47 47 45 45 45 42 42 42 42 42 42 42 42 43 44 41 41 42 43 43 46 46 45 45 44 44 46 44 43 42 43 43 43 43 43 42 42 43 44 45 45 44 44 44 43 44 46 46 46 46 47 46 48 49 49 50 51 51 51
42 42 41 41 42 43 43 44 46 46 47 47 47 50 50 49 49 49 49 48 48 47 48 47 46 46 46 47 46 45 44 44 43 42 42 42 42 42 41 42 42 42 42 40 42 42 42 46 45 45 43 43 42 42 44 43 43 42 43 43 44 44 43 42 40 41 42 42 43 42 43 43 43 43 43 44 45 46 47 48 49 49 49 49 49 50 50
40 41 42 42 42 42 42 43 43 44 46 47 48 48 50 51 50 49 49 48 47 48 48 47 45 45 45 44 43 43 42 42 42 41 41 41 42 41 41 41 41 41 42 43 42 42 45 44 43 42 43 42 41 41 43 44 45 43 44 44 43 43 43 40 40 42 42 42 42 42 42 44 45 46 46 45 45 46 47 47 48 48 48 48 48 49 50
41 41 41 42 41 41 42 41 42 43 45 47 47 48 48 49 50 49 48 47 47 50 48 46 45 45 44 43 42 42 41 41 41 41 41 41 42 42 42 42 42 43 44 44 45 43 44 43 43 41 42 41 41 42 44 45 45 45 43 42 42 41 40 40 41 41 41 42 43 46 45 45 46 46 46 46 46 46 46 47 47 47 47 48 48 49 50
41 41 41 41 41 41 41 41 42 44 45 46 46 47 48 48 49 49 48 47 47 48 46 45 45 44 43 43 43 43 42 42 41 41 41 40 40 41 41 40 41 43 44 43 45 44 43 43 45 41 41 42 42 45 44 45 44 42 41 41 41 40 39 40 41 42 44 45 47 46 45 46 46 45 46 46 46 46 47 48 48 49 49 50 50 51 52
40 41 42 41 41 41 42 42 44 43 44 45 46 48 48 48 48 49 49 47 48 46 45 45 47 44 43 44 43 42 41 41 41 41 41 41 39 40 40 40 41 42 44 44 44 43 42 42 42 43 41 42 44 44 44 44 41 39 39 39 39 40 41 41 43 43 44 45 44 44 44 45 45 45 46 47 47 48 48 49 49 50 51 51 52 51 50
41 41 41 41 41 41 42 43 43 44 44 45 45 46 46 47 47 47 47 46 46 46 45 45 46 46 45 43 42 40 40 41 40 41 40 40 41 40 40 41 42 42 43 43 42 40 41 40 40 41 43 43 43 43 44 42 40 39 39 39 40 40 40 40 40 41 42 42 42 42 43 43 44 44 45 45 46 46 47 47 48 48 49 49 49 49 49
42 42 42 42 42 42 43 43 43 44 44 44 44 46 46 46 46 46 46 46 45 46 44 44 43 42 43 41 41 40 40 40 39 40 40 40 41 41 42 42 41 43 43 43 41 42 42 42 40 41 42 42 42 44 43 41 40 40 41 41 41 40 39 39 39 40 41 42 43 42 42 43 43 43 43 44 44 44 46 47 47 48 48 49 48 48 48
42 42 43 43 43 43 42 42 42 43 44 45 45 45 46 47 46 44 43 43 44 45 46 45 45 46 45 44 41 40 40 40 40 40 39 40 39 38 41 47 45 44 43 42 42 42 41 40 43 42 42 42 42 43 40 39 40 41 41 40 40 41 40 39 39 39 39 39 41 41 41 42 42 42 42 42 43 44 44 45 46 47 48 48 48 48 48
43 43 43 47 44 43 42 43 44 46 45 45 44 44 45 46 47 45 44 43 43 44 45 45 45 45 44 44 44 43 42 41 41 41 40 40 39 39 43 46 44 44 42 42 43 40 39 42 42 42 42 42 42 42 39 40 41 40 40 41 41 42 40 39 39 39 39 38 37 38 40 40 39 40 40 40 41 42 43 44 46 46 47 47 48 48 48
43 44 44 43 43 43 44 44 45 46 46 45 42 42 43 44 45 46 47 46 45 45 46 46 45 43 44 42 42 41 40 40 40 40 40 41 45 46 47 46 45 43 42 43 42 41 41 42 42 41 41 42 42 40 38 38 40 41 41 41 41 40 40 39 39 39 39 38 38 39 39 39 39 38 38 39 39 40 41 42 43 45 46 47 46 46 46
43 43 43 43 44 43 43 44 43 41 41 44 44 44 46 46 44 45 46 46 46 46 46 45 44 45 43 43 42 41 40 39 38 38 40 40 40 43 45 42 43 42 43 43 42 40 40 40 40 40 40 41 42 38 38 38 40 41 41 41 41 41 40 40 40 39 39 39 38 37 37 38 38 37 37 37 38 39 40 42 43 44 44 45 45 45 45
42 42 43 43 43 43 43 44 43 43 44 45 46 46 47 47 47 46 45 45 45 45 44 43 42 43 43 45 43 42 43 42 39 38 40 40 40 42 44 46 43 42 42 40 39 39 40 39 40 40 40 41 37 37 38 39 41 41 41 41 41 41 40 40 40 40 39 38 38 36 36 36 37 37 37 37 38 38 40 41 42 42 42 43 44 44 43
43 42 42 42 42 42 42 42 43 44 45 46 46 46 46 46 45 43 45 45 44 45 43 42 41 42 43 43 43 43 43 43 43 42 42 42 42 43 44 43 43 42 42 40 40 39 41 40 41 41 41 40 39 40 40 39 40 41 41 41 41 40 41 40 39 38 39 39 38 37 36 37 38 37 38 38 38 38 39 40 40 40 40 41 42 42 41
43 43 42 44 44 44 43 43 44 46 46 47 47 47 47 46 46 46 45 45 45 44 41 41 42 42 42 42 42 43 43 43 44 46 44 43 43 45 44 44 42 43 41 41 40 36 36 37 38 40 40 40 39 40 41 40 39 41 40 40 40 39 40 40 39 39 38 39 38 38 37 37 37 37 37 37 38 38 38 38 39 39 39 40 40 40 40
43 42 42 43 43 44 43 43 44 45 46 47 48 48 48 47 47 45 44 45 43 42 41 40 39 40 41 41 42 42 42 41 44 44 45 44 44 43 45 43 42 42 40 38 36 35 36 41 39 39 40 39 40 40 41 40 40 40 40 40 40 40 41 41 40 38 38 38 38 37 37 37 38 36 36 37 37 37 36 37 37 37 37 38 38 38 39